This is the latest recevied weather packets stored in our database for station/object DG4DAZ-6. If no packets are shown the sender has not sent any weather packets the latest 10 day(s).
| Time | Temp. | Humidity | Pressure | Rain* | Wind** | Luminosity | Snow |
|---|---|---|---|---|---|---|---|
| 1777890083 | 19.44° C | 61% | 1012.1 hPa | 0 mm | - | 415 W/m² | - |
| 1777889483 | 18.89° C | 62% | 1012.2 hPa | 0 mm | - | 599 W/m² | - |
| 1777888883 | 18.89° C | 61% | 1012.2 hPa | 0 mm | - | 837 W/m² | - |
| 1777888283 | 18.89° C | 68% | 1012.2 hPa | 0 mm | - | 681 W/m² | - |
| 1777887683 | 18.33° C | 64% | 1012.2 hPa | 0 mm | - | 783 W/m² | - |
| 1777887083 | 18.89° C | 64% | 1012.2 hPa | 0 mm | - | 797 W/m² | - |
| 1777886482 | 18.33° C | 67% | 1012.2 hPa | 0 mm | - | 787 W/m² | - |
| 1777885884 | 17.78° C | 68% | 1012.2 hPa | 0 mm | - | 208 W/m² | - |
| 1777885283 | 17.78° C | 68% | 1012.2 hPa | 0 mm | - | 547 W/m² | - |
| 1777884683 | 17.78° C | 69% | 1012.2 hPa | 0 mm | - | 554 W/m² | - |
| 1777884082 | 17.22° C | 72% | 1012.3 hPa | 0 mm | - | 473 W/m² | - |
| 1777883484 | 16.11° C | 75% | 1012.4 hPa | 0 mm | - | 441 W/m² | - |
| 1777882883 | 15.56° C | 74% | 1012.3 hPa | 0 mm | - | 355 W/m² | - |
| 1777882283 | 16.11° C | 73% | 1012.3 hPa | 0 mm | - | 362 W/m² | - |
| 1777881684 | 15.56° C | 73% | 1012.3 hPa | 0 mm | - | 553 W/m² | - |
| 1777881083 | 15° C | 76% | 1012.3 hPa | 0 mm | - | 293 W/m² | - |
| 1777880483 | 14.44° C | 80% | 1012.4 hPa | 0 mm | - | 434 W/m² | - |
| 1777879883 | 13.89° C | 79% | 1012.4 hPa | 0 mm | - | 120 W/m² | - |
| 1777879282 | 13.89° C | 78% | 1012.3 hPa | 0 mm | - | 158 W/m² | - |
| 1777878684 | 13.89° C | 79% | 1012.2 hPa | 0 mm | - | 132 W/m² | - |
| 1777878084 | 13.89° C | 80% | 1012.1 hPa | 0 mm | - | 182 W/m² | - |
| 1777877483 | 13.89° C | 80% | 1012.1 hPa | 0 mm | - | 302 W/m² | - |
| 1777876883 | 13.33° C | 81% | 1012 hPa | 0 mm | - | 209 W/m² | - |
| 1777876283 | 13.33° C | 81% | 1011.9 hPa | 0 mm | - | 95 W/m² | - |
| 1777875682 | 13.33° C | 81% | 1012 hPa | 0 mm | - | 125 W/m² | - |
* Rain latest hour (hover to see other rain measurements)
** Current wind speed in m/s (hover to see current wind gust speed)